Fargo, ND

5:08 PM CDT on April 26, 2017 (GMT -0500)
Hector International

Weather History for KFAR - November, 2010

Change the Weather History Date:

Wednesday, November 17, 2010

  Actual Average Record
Temperature  
Mean Temperature 29 °F 28 °F  
Max Temperature 34 °F 36 °F 73 °F (1953)
Min Temperature 24 °F 19 °F -9 °F (1891)
Degree Days  
Heating Degree Days 36 37  
Month to date heating degree days 423 548  
Since 1 July heating degree days 1154 1424  
Cooling Degree Days 0 0  
Month to date cooling degree days 0 0  
Year to date cooling degree days 611 551  
Moisture  
Dew Point 21 °F    
Average Humidity 73    
Maximum Humidity 85    
Minimum Humidity 60    
Precipitation  
Precipitation T in 0.04 in 1.25 in (1952)
Month to date precipitation 0.04 0.62  
Year to date precipitation 27.04 21.40  
Snow  
Snow T in 0.30 in 8.50 in (1996)
Month to date snowfall T 3.4  
Since 1 July snowfall 1.0 4.1  
Since 1 September snowfall 1.0 4.1  
Snow Depth 0.00 in    
Sea Level Pressure  
Sea Level Pressure 30.26 in    
Wind  
Wind Speed 15 mph (North)    
Max Wind Speed 28 mph    
Max Gust Speed 33 mph    
Visibility 9 miles    
Events Rain    
T = Trace of Precipitation, MM = Missing Value Source: NWS Daily Summary

Daily Weather History Graph

Daily Weather History Graph

Search for Another Location

Airport or City:

Trip Planner

Search our weather history database for the weather conditions in past years. The results will help you decide how hot, cold, wet, or windy it might be!

Date:

Astronomy

Nov. 17, 2010 Rise Set
Actual Time 7:33 AM CST 4:50 PM CST
Civil Twilight 6:59 AM CST 5:23 PM CST
Nautical Twilight 6:22 AM CST 6:01 PM CST
Astronomical Twilight 5:46 AM CST 6:36 PM CST
Moon 2:33 PM CST (11/17) 3:21 AM CST (11/17)
Length of Visible Light 10h 24m
Length of Day
9h 17m
Waxing Gibbous, 85% of the Moon is Illuminated
Nov 17
Waxing Gibbous
Nov 21
Full
Nov 28
Last Quarter
Dec 5
New
Dec 13
First Quarter

Hourly Weather History & Observations

Time (CST) Temp. Windchill Dew Point Humidity Pressure Visibility Wind Dir Wind Speed Gust Speed Precip Events Conditions
12:53 AM 34.0 °F 29.8 °F 28.9 °F 82% 30.01 in 7.0 mi NW 4.6 mph - N/A   Overcast
1:53 AM 34.0 °F 24.2 °F 28.0 °F 79% 30.04 in 7.0 mi NNW 15.0 mph 19.6 mph N/A   Overcast
2:53 AM 33.1 °F 23.9 °F 26.1 °F 75% 30.06 in 10.0 mi NNW 12.7 mph - N/A   Overcast
3:53 AM 33.1 °F 23.4 °F 27.0 °F 78% 30.10 in 10.0 mi NNW 13.8 mph - N/A   Overcast
4:46 AM 32.0 °F 20.8 °F 28.4 °F 87% 30.09 in 5.0 mi North 17.3 mph - N/A   Overcast
4:53 AM 32.0 °F 20.5 °F 28.0 °F 85% 30.13 in 6.0 mi North 18.4 mph - N/A   Overcast
5:06 AM 30.2 °F 16.8 °F 28.4 °F 93% 30.11 in 8.0 mi NNW 23.0 mph - 0.00 in   Overcast
5:14 AM 30.2 °F 16.8 °F 26.6 °F 86% 30.12 in 7.0 mi North 23.0 mph 31.1 mph 0.00 in Rain Light Freezing Rain
5:49 AM 28.4 °F 15.1 °F 24.8 °F 86% 30.14 in 9.0 mi North 20.7 mph 28.8 mph 0.00 in   Overcast
5:53 AM 28.9 °F 14.5 °F 25.0 °F 85% 30.19 in 9.0 mi North 25.3 mph 33.4 mph 0.00 in   Overcast
6:33 AM 28.4 °F 15.4 °F 24.8 °F 86% 30.17 in 10.0 mi North 19.6 mph 26.5 mph N/A   Overcast
6:53 AM 28.9 °F 14.8 °F 23.0 °F 78% 30.22 in 10.0 mi North 24.2 mph 28.8 mph N/A   Overcast
7:53 AM 27.0 °F 13.9 °F 21.0 °F 78% 30.26 in 10.0 mi NNW 18.4 mph 26.5 mph N/A   Mostly Cloudy
8:09 AM 26.6 °F 12.0 °F 21.2 °F 80% 30.23 in 10.0 mi NNW 23.0 mph 31.1 mph N/A   Overcast
8:25 AM 26.6 °F 13.1 °F 19.4 °F 74% 30.24 in 10.0 mi North 19.6 mph 27.6 mph N/A   Overcast
8:53 AM 27.0 °F 13.2 °F 19.0 °F 72% 30.29 in 10.0 mi North 20.7 mph 26.5 mph N/A   Overcast
9:53 AM 28.0 °F 15.3 °F 19.9 °F 72% 30.30 in 10.0 mi North 18.4 mph - N/A   Overcast
10:53 AM 28.0 °F 15.3 °F 19.9 °F 72% 30.32 in 10.0 mi NNW 18.4 mph - N/A   Overcast
11:53 AM 28.9 °F 16.9 °F 19.0 °F 67% 30.34 in 10.0 mi NNW 17.3 mph - N/A   Overcast
12:53 PM 28.0 °F 17.0 °F 19.0 °F 69% 30.35 in 10.0 mi North 13.8 mph - N/A   Overcast
1:53 PM 28.0 °F 16.1 °F 18.0 °F 66% 30.35 in 10.0 mi North 16.1 mph - N/A   Overcast
2:53 PM 27.0 °F 15.6 °F 18.0 °F 69% 30.35 in 10.0 mi North 13.8 mph - N/A   Overcast
3:53 PM 27.0 °F 15.6 °F 17.1 °F 66% 30.38 in 10.0 mi NNW 13.8 mph - N/A   Overcast
4:53 PM 27.0 °F 16.7 °F 16.0 °F 63% 30.39 in 10.0 mi North 11.5 mph - N/A   Overcast
5:53 PM 27.0 °F 16.7 °F 17.1 °F 66% 30.40 in 10.0 mi NNW 11.5 mph - N/A   Overcast
6:02 PM 26.6 °F 16.2 °F 17.6 °F 69% 30.36 in 10.0 mi North 11.5 mph - N/A   Overcast
6:53 PM 27.0 °F 16.7 °F 16.0 °F 63% 30.41 in 10.0 mi North 11.5 mph - N/A   Overcast
7:53 PM 26.1 °F 16.8 °F 17.1 °F 69% 30.41 in 10.0 mi North 9.2 mph - N/A   Overcast
8:53 PM 26.1 °F 16.8 °F 17.1 °F 69% 30.42 in 10.0 mi NNE 9.2 mph - N/A   Overcast
9:53 PM 25.0 °F 14.2 °F 14.0 °F 63% 30.42 in 10.0 mi North 11.5 mph - N/A   Overcast
10:53 PM 24.1 °F 14.4 °F 12.0 °F 60% 30.43 in 10.0 mi North 9.2 mph - N/A   Overcast
11:53 PM 24.1 °F 14.4 °F 10.9 °F 57% 30.42 in 10.0 mi NNE 9.2 mph - N/A   Overcast